This is the latest recevied weather packets stored in our database for station/object W3TMB. If no packets are shown the sender has not sent any weather packets the latest 10 day(s).
| Time | Temp. | Humidity | Pressure | Rain* | Wind** | Luminosity | Snow |
|---|---|---|---|---|---|---|---|
| 1778103537 | 13.33° C | 87% | 1006.5 hPa | 0 mm | - | 14 W/m² | - |
| 1778103235 | 13.33° C | 87% | 1006.2 hPa | 0 mm | - | 16 W/m² | - |
| 1778102932 | 13.33° C | 87% | 1006.3 hPa | 0 mm | - | 19 W/m² | - |
| 1778102628 | 13.89° C | 87% | 1006.1 hPa | 0 mm | - | 34 W/m² | - |
| 1778102322 | 13.89° C | 87% | 1006 hPa | 0 mm | - | 56 W/m² | - |
| 1778102019 | 13.89° C | 87% | 1005.8 hPa | 0 mm | - | 75 W/m² | - |
| 1778101716 | 13.89° C | 87% | 1005.6 hPa | 0 mm | - | 85 W/m² | - |
| 1778101413 | 13.89° C | 87% | 1005.8 hPa | 0 mm | - | 77 W/m² | - |
| 1778101110 | 13.89° C | 87% | 1005.4 hPa | 0 mm | - | 87 W/m² | - |
| 1778100806 | 14.44° C | 87% | 1005.4 hPa | 0 mm | - | 115 W/m² | - |
| 1778100503 | 14.44° C | 87% | 1005.3 hPa | 0 mm | - | 125 W/m² | - |
| 1778100201 | 14.44° C | 87% | 1005 hPa | 0 mm | - | 121 W/m² | - |
| 1778099898 | 15° C | 87% | 1005.1 hPa | 0 mm | - | 106 W/m² | - |
| 1778099595 | 15° C | 87% | 1004.9 hPa | 0 mm | - | 73 W/m² | - |
| 1778099292 | 15.56° C | 87% | 1005 hPa | 0 mm | - | 73 W/m² | - |
| 1778098989 | 16.67° C | 86% | 1004.7 hPa | 0 mm | - | 35 W/m² | - |
| 1778098685 | 17.22° C | 88% | 1004.4 hPa | 0 mm | - | 47 W/m² | - |
| 1778098383 | 17.22° C | 88% | 1004.4 hPa | 0 mm | - | 92 W/m² | - |
| 1778098080 | 17.22° C | 89% | 1004.3 hPa | 0 mm | - | 94 W/m² | - |
| 1778097775 | 16.67° C | 89% | 1004.3 hPa | 0 mm | - | 128 W/m² | - |
| 1778097472 | 16.67° C | 90% | 1004.2 hPa | 0 mm | - | 112 W/m² | - |
| 1778097169 | 16.67° C | 92% | 1004.1 hPa | 0 mm | - | 77 W/m² | - |
| 1778096866 | 16.67° C | 92% | 1003.9 hPa | 0 mm | - | 71 W/m² | - |
| 1778096562 | 16.67° C | 92% | 1004.1 hPa | 0 mm | - | 73 W/m² | - |
| 1778096260 | 16.67° C | 92% | 1004.1 hPa | 0 mm | - | 72 W/m² | - |
* Rain latest hour (hover to see other rain measurements)
** Current wind speed in m/s (hover to see current wind gust speed)